Regional Weather Roundup
Issued by NWS

Home | Current Version | Previous Version | Text Only | Print | Product List | Glossary Off
Versions: 1 2 3 4 5 6 7 8 9 10 11 12 13 14 15 16 17 18 19 20 21 22 23 24 25 26 27 28 29 30 31 32 33 34 35 36 37 38 39 40 41 42 43 44 45 46 47 48 49 50

966
ASUS43 KMKX 030700
RWRWI

WISCONSIN REGIONAL WEATHER ROUNDUP
NATIONAL WEATHER SERVICE MILWAUKEE/SULLIVAN WI
200 AM CDT TUE MAY 03 2016

NOTE: "FAIR" INDICATES FEW OR NO CLOUDS BELOW 12,000 FEET WITH NO
SIGNIFICANT WEATHER AND/OR OBSTRUCTIONS TO VISIBILITY.

WIZ001-002-006>008-014>016-023>028-030800-
NORTHWEST WISCONSIN

CITY           SKY/WX    TMP DP  RH WIND       PRES   REMARKS
SUPERIOR ARPT  CLEAR     32  32  99 SW5       29.92F WCI  27
ASHLAND        CLEAR     41  34  76 SW7       29.91F
HAYWARD        CLEAR     37  31  78 CALM      29.95S
SIREN          CLEAR     49  31  50 SW5       29.95F
CUMBERLAND     CLEAR     43  34  70 CALM      29.96F
RICE LAKE      CLEAR     43  39  86 CALM      29.98S
CHETEK         CLEAR     40  36  83 CALM      29.96F
LADYSMITH      CLEAR     40  36  84 CALM      29.97S
EAU CLAIRE     CLEAR     43  38  82 SW5       29.96F
MENOMONIE      CLEAR     41  33  73 CALM      29.97F
NEW RICHMOND   CLEAR     43  38  82 CALM      29.97F
OSCEOLA        CLEAR     41  41  98 CALM      29.99F
$$

WIZ003>005-009-010-017-018-030800-
NORTH CENTRAL WISCONSIN

CITY           SKY/WX    TMP DP  RH WIND       PRES   REMARKS
MANITOWISH WTR CLEAR     33  33 100 CALM      29.93F
ARBOR VITAE    CLEAR     39  34  81 CALM      29.93F
WOODRUFF       CLEAR     39  34  81 CALM      29.93F
RHINELANDER    CLEAR     36  32  85 W5        29.93F WCI  32
EAGLE RIVER    CLEAR     33  32  94 CALM      29.92F
LAND O LAKES   CLEAR     32  32  99 CALM      29.93F
PHILLIPS       CLEAR     37  34  91 CALM      29.93F
TOMAHAWK       CLEAR     33  31  92 CALM      29.95F
MEDFORD        CLEAR     48  34  58 W3        29.95F
MERRILL        CLEAR     36  34  93 CALM      29.96F
$$

WIZ029-030-035-036-043>047-030800-
CENTRAL WISCONSIN

CITY           SKY/WX    TMP DP  RH WIND       PRES   REMARKS
WAUSAU         CLEAR     47  35  63 CALM      29.93F
MOSINEE        CLEAR     46  34  61 W6        29.96F
MARSHFIELD     CLEAR     48  34  58 W6        29.95F
STEVENS POINT  CLEAR     37  32  82 CALM      29.96F
WAUPACA        CLEAR     43  35  71 CALM      29.96F
WAUTOMA        CLEAR     37  33  85 CALM      29.97F
WISC RAPIDS    CLEAR     39  34  82 CALM      29.97F
CAMP DOUGLAS   NOT AVBL
$$

WIZ011>013-019>022-031-037>040-048>050-030800-
NORTHEAST WISCONSIN

CITY           SKY/WX    TMP DP  RH WIND       PRES   REMARKS
ANTIGO         CLEAR     38  36  92 CALM      29.94F
SHAWANO        CLEAR     49  37  61 SW3       29.94F
OCONTO         CLEAR     38  38 100 CALM      29.94F
STURGEON BAY   CLEAR     45  30  57 S3        29.96F
GREEN BAY      CLEAR     45  37  73 S3        29.95F
MANITOWOC      NOT AVBL
APPLETON       PTCLDY    46  34  61 SW8       29.94F
CLINTONVILLE   CLEAR     45  34  65 SW3       29.94F
OSHKOSH        CLEAR     46  35  65 S7        29.96F
$$

WIZ032>034-041-042-053>061-030800-
SOUTHWEST WISCONSIN

CITY           SKY/WX    TMP DP  RH WIND       PRES   REMARKS
LA CROSSE      CLEAR     48  40  73 SE6       29.98F
SPARTA         CLEAR     37  35  92 CALM      29.99F
VIROQUA        CLEAR     49  36  60 W7        29.99F
BOSCOBEL       CLEAR     42  40  92 SW5       30.00F
PRAIRIE DU CHI CLEAR     42  38  84 CALM      30.00F
PLATTEVILLE    CLEAR     47  39  74 W5        30.00S
$$

WIZ056-057-062-063-064-067-068-030800-
SOUTH CENTRAL WISCONSIN

CITY           SKY/WX    TMP DP  RH WIND       PRES   REMARKS
REEDSBURG      CLEAR     41  39  92 CALM      29.98S
BARABOO/DELLS  CLEAR     42  35  75 CALM      29.98S
LONE ROCK      NOT AVBL
MINERAL POINT  CLEAR     46  36  66 W5        30.00S
MADISON        CLEAR     45  36  70 CALM      29.98F
MIDDLETON      CLEAR     40  37  92 CALM      29.99S
WATERTOWN      CLEAR     38  36  92 CALM      29.99S
MONROE         CLEAR     45  36  70 S8        29.99F
JANESVILLE     CLEAR     41  37  87 CALM      29.99F
$$

WIZ051-052-058>065-066-070>072-030800-
SOUTHEAST WISCONSIN

CITY           SKY/WX    TMP DP  RH WIND       PRES   REMARKS
MILWAUKEE      CLEAR     42  33  70 CALM      29.98F
WAUKESHA       CLEAR     36  34  93 CALM      30.00S
MILWAUKEE/TIMM PTCLDY    41  32  70 CALM      30.00S
RACINE         CLEAR     40  33  76 W7        30.00F
BURLINGTON     CLEAR     34  34  98 CALM      29.99F
KENOSHA        CLEAR     37  33  85 W5        29.99S WCI  33
FOND DU LAC    CLEAR     44  35  70 S5        29.97F
SHEBOYGAN      CLEAR     39  34  82 SW5       29.97F
WEST BEND      CLEAR     37  34  87 CALM      29.98F
JUNEAU         CLEAR     43  34  70 S6        30.00S
$$

LSZ147-162-030800-
LAKE SUPERIOR

STATION/POSITION TIME  TEMP    WIND        PRES    WAVE
                       AIR SEA DIR/SP/G            HT/PER
                 (UTC) (F)     (DEG/KT/KT) (MB)    (FT/S)
W MID LAKE BUOY  0550   40 37  260/  4/ 10 1013.2F   0
DEVILS ISLAND    0600   47     230/  8/  8 1013.4F
SAXON HARBOR     0600   38     190/  1/  2 1012.5
$$

LMZ867-665-643>646-030800-
LAKE MICHIGAN

STATION/POSITION TIME  TEMP    WIND        PRES    WAVE
                       AIR SEA DIR/SP/G            HT/PER
                 (UTC) (F)     (DEG/KT/KT) (MB)    (FT/S)
CHAMBERS ISLAND  0600   46     170/  3/  5 1014.2F
N MID LAKE BUOY  0550   41 38  190/  4/  6 1014.4F   0
NORTHPORT PIER   0600   45     210/  1/ 12 1014.2F
ALGOMA LAKESHORE 0600             CALM       N/A
KEWAUNEE LAKESHO 0600   43     280/  2/  3 1014.2F
SHEBOYGAN LAKESH 0600   47     240/  7/  8 1015.7F
PORT WASHINGTON  0640   47     280/  5/  7 1015.9F
S MID LAKE BUOY  0550   42 41  320/  6/  8 1015.5F   1
KENOSHA   LAKESH 0600   46     280/  7/  8 1015.6F
$$

TC  - TEMPERATURE IN CELSIUS
VSB - VISIBILITY IN STATUTE MILES
WCI - WIND CHILL INDEX
HX  - HEAT INDEX





USA.gov is the U.S. government's official web portal to all federal, state and local government web resources and services.